Regional Weather Roundup
Issued by NWS

Home | Current Version | Previous Version | Graphics & Text | Print | Product List | Glossary On
Versions: 1 2 3 4 5 6 7 8 9 10 11 12 13 14 15 16 17 18 19 20 21 22 23 24 25 26 27 28 29 30 31 32 33 34 35 36 37 38 39 40 41 42 43 44 45 46 47 48 49 50
000
ASUS45 KSLC 230110
RWRUT

UTAH REGIONAL WEATHER ROUNDUP
NATIONAL WEATHER SERVICE SALT LAKE CITY UT
700 PM MDT SAT APR 22 2017

UTZ001>011-023>025-230200-

NORTHERN UTAH

CITY           SKY/WX    TMP DP  RH WIND       PRES   REMARKS
BRIGHAM CITY   PTSUNNY   57  29  34 CALM      30.08S
HILL AFB       NOT AVBL
LOGAN          CLOUDY    58  35  42 W8        30.06S
OGDEN          PTSUNNY   58  31  35 NW5       30.05F
SALT LAKE CITY PTSUNNY   60  30  32 NW12      30.04F
TOOELE VALLEY  PTSUNNY   55  36  47 CALM      30.06F
WENDOVER       CLOUDY    59  22  24 CALM      30.04F
HEBER CITY     PTSUNNY   61  28  29 SW6       30.05F
WEST JORDAN    PTSUNNY   59  44  55 NW10      30.06F

$$

UTZ011>015-024>027-230200-

CENTRAL/NORTHEAST UTAH

CITY           SKY/WX    TMP DP  RH WIND       PRES   REMARKS
PROVO AIRPORT  PTSUNNY   59  33  37 E6        30.05F
MOAB/CANYONLAN SUNNY     65  14  14 CALM      30.05F
DELTA          MOSUNNY   59  21  23 CALM      30.05F
PRICE          SUNNY     57  15  19 CALM      30.11F
ROOSEVELT      CLOUDY    59  16  18 SE3       30.12F
VERNAL         SUNNY     57  15  19 SW6       30.10F

$$

UTZ013>016-019>022-027-230200-

SOUTHERN UTAH

CITY           SKY/WX    TMP DP  RH WIND       PRES   REMARKS
BRYCE CANYON   MOSUNNY   55  18  23 SE15G22   30.17F
CEDAR CITY     PTSUNNY   63  28  26 CALM      30.05F
MILFORD        MOSUNNY   63  25  23 N7        30.03F
ST GEORGE      MOCLDY    78  24  13 NW3       29.93F
HANKSVILLE     MOSUNNY   64  14  14 CALM      30.09S
BLANDING       SUNNY     61  15  17 S13       30.18S

$$

REGIONAL REPORTS     COLORADO/ARIZONA

CITY           SKY/WX    TMP DP  RH WIND       PRES   REMARKS
CRAIG, CO      CLEAR     56  18  22 SW7       30.12F
GRAND JUNCTION SUNNY     64  17  16 SW6       30.07F
RIFLE, CO      CLEAR     62  16  16 N3        30.10F
MONTROSE, CO   CLEAR     60  12  15 NW5       30.13S
CORTEZ, CO     SUNNY     64  16  15 W10       30.11S
COLORADO CITY    N/A     73  25  16 CALM      30.05F
PAGE, AZ       PTSUNNY   67  16  14 NE6       30.05F
GRAND CANYON   SUNNY     67  23  19 N9        30.13S
KINGMAN, AZ    SUNNY     82  26  13 N13       29.94S
FLAGSTAFF, AZ  MOSUNNY   67  20  16 VRB6      30.13S

$$

REGIONAL REPORTS    NEVADA/IDAHO/WYOMING

CITY           SKY/WX    TMP DP  RH WIND       PRES   REMARKS
LAS VEGAS, NV  PTSUNNY   83  17   8 NE3       29.87F
ELY, NY        CLOUDY    60  29  30 S16       30.04S
ELKO, NV       PTSUNNY   65  33  30 N10       29.95F
POCATELLO, ID  CLOUDY    57  31  37 S18       30.02F
BURLEY, ID     PTSUNNY   60  24  25 SW16      29.96F
FORT BRIDGER,    N/A     54  25  33 CALM      30.12F
EVANSTON, WY   CLOUDY    53  19  26 SW13      30.09F
ROCK SPRINGS,  SUNNY     55  17  22 SE10      30.10F
KEMMERER, WY     N/A     50  19  29 CALM      30.12F

$$



USA.gov is the U.S. government's official web portal to all federal, state and local government web resources and services.